Terug naar catalogus

STARLINK-3839

ActiefCommunicatieVLEO
NORAD 52480·PAYLOAD·🇺🇸 United States

Gelanceerd May 6, 2022 vanaf Cape Canaveral Space Force Station

Loading…

Volgende Passages (komende 24 uur)

TLE

VersSource: CelesTrak SupGP

Epoch: Sep 15, 2026, 02:22 UTC

1 52480C 22049AF  26258.09909722  .00002315  00000+0  68400-4 0  2587
2 52480  53.1585 278.6603 0001173  84.1753 264.5492 15.34394215    10

Volg STARLINK-3839 in realtime met AllMySat

Download on the App Store